Location: Contre
(49.7477°N, 2.0963°E)
Time: 12:53:04
(UTC+00:00)

Meteor 2-12 Rocket - Pass Details

Date: 12 November 2025
Orbit: 935 x 957 km, 82.5° (Epoch: 05 December)

Event Time Altitude Azimuth Distance (km) Brightness Sun altitude
Rises 06:19:11 0° 159° (SSE) 3,626 8.1 -6.7°
Reaches altitude 10° 06:21:52 10° 151° (SSE) 2,684 7.6 -6.3°
Maximum altitude 06:27:21 36° 88° (E) 1,484 6.3 -5.5°
Drops below altitude 10° 06:32:52 10° 24° (NNE) 2,695 6.9 -4.7°
Sets 06:35:33 0° 16° (NNE) 3,642 7.4 -4.3°
